Monticello, NY

3:50 AM EST on December 10, 2019 (GMT -0500)
Sullivan County International

Weather History for KMSV - November, 2019

Change the Weather History Date:

Saturday, November 16, 2019

  Actual Average Record
Temperature  
Mean Temperature 26 °F -  
Max Temperature 34 °F 43 °F 64 °F (2005)
Min Temperature 19 °F 28 °F 10 °F (1996)
Degree Days  
Heating Degree Days 38    
Moisture  
Dew Point 5 °F    
Average Humidity 41    
Maximum Humidity 66    
Minimum Humidity 19    
Precipitation  
Precipitation 0.00 in - - ()
Sea Level Pressure  
Sea Level Pressure 30.43 in    
Wind  
Wind Speed 10 mph (ENE)    
Max Wind Speed 21 mph    
Max Gust Speed 28 mph    
Visibility 10 miles    
Events      
Averages and records for this station are not official NWS values.
T = Trace of Precipitation, MM = Missing Value Source: NWS Daily Summary

Daily Weather History Graph

Daily Weather History Graph

Search for Another Location

Airport or City:

Astronomy

Nov. 16, 2019 Rise Set
Actual Time 6:49 AM EST 4:38 PM EST
Civil Twilight 6:19 AM EST 5:08 PM EST
Nautical Twilight 5:45 AM EST 5:41 PM EST
Astronomical Twilight 5:12 AM EST 6:14 PM EST
Moon 8:06 PM EST (11/16) 10:42 AM EST (11/16)
Length of Visible Light 10h 48m
Length of Day
9h 48m
Waning Gibbous, 82% of the Moon is Illuminated
Nov 16
Waning Gibbous
Nov 19
Last Quarter
Nov 26
New
Dec 4
First Quarter
Dec 12
Full

Hourly Weather History & Observations

Time (EST) Temp. Windchill Dew Point Humidity Pressure Visibility Wind Dir Wind Speed Gust Speed Precip Events Conditions
12:24 AM 33.8 °F 25.8 °F 23.0 °F 65% 30.23 in 10.0 mi NNW 10.4 mph - N/A   Overcast
12:56 AM 33.1 °F 21.9 °F 23.0 °F 66% 30.26 in 10.0 mi NNW 18.4 mph 26.5 mph N/A   Overcast
1:56 AM 32.0 °F 19.8 °F 21.0 °F 64% 30.29 in 10.0 mi NNW 20.7 mph 27.6 mph N/A   Overcast
2:56 AM 30.0 °F 20.0 °F 19.0 °F 64% 30.31 in 10.0 mi NNW 12.7 mph 21.9 mph N/A   Overcast
3:56 AM 27.0 °F 16.7 °F 12.0 °F 53% 30.32 in 10.0 mi NNW 11.5 mph - N/A   Clear
4:56 AM 25.0 °F 17.1 °F 8.1 °F 49% 30.36 in 10.0 mi North 6.9 mph - N/A   Clear
5:56 AM 24.1 °F 16.0 °F 6.1 °F 46% 30.40 in 10.0 mi North 6.9 mph - N/A   Clear
6:56 AM 23.0 °F 15.8 °F 3.0 °F 42% 30.45 in 10.0 mi NE 5.8 mph - N/A   Clear
7:56 AM 25.0 °F 17.1 °F 1.9 °F 37% 30.48 in 10.0 mi ENE 6.9 mph - N/A   Clear
8:56 AM 26.1 °F 18.4 °F 7.0 °F 44% 30.49 in 10.0 mi SSE 6.9 mph - N/A   Clear
9:56 AM 28.0 °F 22.8 °F 3.9 °F 36% 30.50 in 10.0 mi Variable 4.6 mph - N/A   Clear
10:56 AM 30.9 °F 25.2 °F 1.9 °F 29% 30.50 in 10.0 mi NE 5.8 mph - N/A   Clear
11:56 AM 33.1 °F 26.9 °F -2.0 °F 22% 30.47 in 10.0 mi East 6.9 mph - N/A   Clear
12:56 PM 34.0 °F 28.0 °F -2.0 °F 22% 30.45 in 10.0 mi East 6.9 mph - N/A   Clear
1:56 PM 34.0 °F 26.6 °F -5.1 °F 19% 30.44 in 10.0 mi ESE 9.2 mph - N/A   Clear
2:56 PM 33.1 °F 24.9 °F -2.9 °F 21% 30.44 in 10.0 mi East 10.4 mph - N/A   Clear
4:56 PM 28.0 °F 22.8 °F -0.9 °F 29% 30.47 in 10.0 mi East 4.6 mph - N/A   Clear
5:56 PM 26.1 °F 20.5 °F -2.0 °F 30% 30.49 in 10.0 mi ENE 4.6 mph - N/A   Clear
6:56 PM 25.0 °F 18.1 °F -2.0 °F 31% 30.49 in 10.0 mi ENE 5.8 mph - N/A   Clear
7:56 PM 23.0 °F 17.0 °F -0.0 °F 37% 30.49 in 10.0 mi East 4.6 mph - N/A   Clear
8:56 PM 21.0 °F 14.6 °F -0.0 °F 40% 30.50 in 10.0 mi ENE 4.6 mph - N/A   Clear
9:56 PM 19.9 °F 12.1 °F 1.0 °F 44% 30.47 in 10.0 mi East 5.8 mph - N/A   Clear
10:56 PM 19.9 °F 12.1 °F 1.0 °F 44% 30.45 in 10.0 mi East 5.8 mph - N/A   Clear
11:56 PM 19.0 °F 12.3 °F 3.0 °F 50% 30.46 in 10.0 mi ESE 4.6 mph - N/A   Clear